TimeCET,TemperatureF,Dew PointF,Humidity,Sea Level PressureIn,VisibilityMPH,Wind Direction,Wind SpeedMPH,Gust SpeedMPH,PrecipitationIn,Events,Conditions,WindDirDegrees,DateUTC
12:55 AM,33.8,32.0,93,29.68,0.0,West,27.6,-,N/A,Fog,Fog,260,2013-03-07 23:55:00
1:00 AM,34,31,86,,0,West,27.6,,,Fog,Heavy Fog,260,2013-03-08 00:00:00
1:55 AM,35.6,32.0,87,29.68,0.0,West,25.3,-,N/A,Fog,Fog,260,2013-03-08 00:55:00
2:55 AM,33.8,32.0,93,29.68,0.0,West,28.8,-,N/A,Fog,Fog,270,2013-03-08 01:55:00
3:55 AM,33.8,32.0,93,29.68,0.0,West,19.6,-,N/A,Fog,Fog,270,2013-03-08 02:55:00
4:55 AM,33.8,32.0,93,29.68,0.0,West,23.0,-,N/A,Fog,Fog,270,2013-03-08 03:55:00
5:55 AM,33.8,32.0,93,29.65,0.0,WSW,34.5,-,N/A,Fog,Fog,250,2013-03-08 04:55:00
6:55 AM,33.8,30.2,87,29.65,0.0,WSW,28.8,-,N/A,Fog,Fog,250,2013-03-08 05:55:00
7:00 AM,34,31,84,,0,WSW,28.8,,,Fog,Heavy Fog,250,2013-03-08 06:00:00
7:55 AM,33.8,30.2,87,29.65,0.0,NNE,32.2,-,N/A,Fog,Fog,30,2013-03-08 06:55:00
8:55 AM,33.8,32.0,93,29.65,0.0,WSW,35.7,-,N/A,Fog,Fog,240,2013-03-08 07:55:00
9:55 AM,33.8,32.0,93,29.65,0.0,WSW,34.5,-,N/A,Fog,Fog,240,2013-03-08 08:55:00
10:55 AM,33.8,32.0,93,29.65,0.0,WSW,34.5,-,N/A,Fog,Fog,240,2013-03-08 09:55:00
11:55 AM,33.8,30.2,87,29.65,0.0,WSW,36.8,-,N/A,Fog,Fog,240,2013-03-08 10:55:00
12:55 PM,33.8,30.2,87,29.62,0.0,WSW,34.5,-,N/A,Fog,Fog,240,2013-03-08 11:55:00
1:00 PM,33,31,88,,0,WSW,34.5,,,Fog,Heavy Fog,240,2013-03-08 12:00:00
1:55 PM,33.8,30.2,87,29.62,0.0,WSW,39.1,-,N/A,Fog,Fog,240,2013-03-08 12:55:00
2:55 PM,33.8,32.0,93,29.62,0.0,WSW,36.8,-,N/A,Fog,Fog,240,2013-03-08 13:55:00
3:55 PM,33.8,32.0,93,29.59,0.0,WSW,34.5,-,N/A,Fog,Fog,240,2013-03-08 14:55:00
4:55 PM,35.6,32.0,87,29.59,0.0,WSW,34.5,-,N/A,Fog,Fog,240,2013-03-08 15:55:00
5:55 PM,33.8,32.0,93,29.59,0.0,WSW,35.7,-,N/A,Fog,Fog,240,2013-03-08 16:55:00
6:55 PM,35.6,32.0,87,29.59,0.0,WSW,32.2,-,N/A,Fog,Fog,240,2013-03-08 17:55:00
7:00 PM,35,33,88,,0,WSW,32.2,,,Fog,Heavy Fog,240,2013-03-08 18:00:00
7:55 PM,33.8,32.0,93,29.59,0.0,WSW,34.5,-,N/A,Fog,Fog,240,2013-03-08 18:55:00
8:55 PM,33.8,32.0,93,29.59,0.0,WSW,28.8,-,N/A,Fog,Fog,240,2013-03-08 19:55:00
9:55 PM,33.8,32.0,93,29.62,0.0,WSW,27.6,-,N/A,Fog,Fog,240,2013-03-08 20:55:00
10:55 PM,35.6,32.0,87,29.65,0.0,WSW,25.3,-,N/A,Fog,Fog,240,2013-03-08 21:55:00
11:55 PM,35.6,33.8,93,29.65,0.0,WSW,25.3,-,N/A,Fog,Fog,240,2013-03-08 22:55:00